CALSPHERE 1 1 00900U 64063C 26165.19950028 .00000549 00000+0 54974-3 0 9991 2 00900 90.2236 71.7007 0024296 307.0058 180.3152 13.76620410 71010 CALSPHERE 2 1 00902U 64063E 26165.23413183 .00000024 00000+0 22974-4 0 9998 2 00902 90.2375 75.7243 0016874 232.5705 253.9185 13.52900046855862 LCS 1 1 01361U 65034C 26164.73852758 .00000026 00000+0 23316-2 0 9997 2 01361 32.1359 185.2154 0012318 110.1924 249.9899 9.89310784209544 TEMPSAT 1 1 01512U 65065E 26165.13457537 .00000046 00000+0 75270-4 0 9990 2 01512 89.9990 212.5938 0067714 256.8420 157.7733 13.33593953959647 CALSPHERE 4A 1 01520U 65065H 26165.14715419 .00000100 00000+0 17179-3 0 9990 2 01520 89.8981 122.5176 0071819 111.2521 274.4760 13.36277836962302 OPS 5712 (P/L 160) 1 02826U 67053A 26165.07009931 .00007315 00000+0 10295-2 0 9992 2 02826 69.9179 45.9367 0000831 274.7805 85.3247 14.77683590 65774 OPS 5712 (P/L 153) 1 02874U 67053H 26165.18735559 -.00000013 00000+0 28660-4 0 9995 2 02874 69.9729 121.7363 0008695 217.0878 142.9628 13.96827928 6372 RIGIDSPHERE 2 (LCS 4) 1 05398U 71067E 26165.19936410 .00000574 00000+0 18121-3 0 9990 2 05398 87.6211 339.6396 0057835 241.7419 117.7935 14.37864146873451 COSMOS 2493 (SKRL-756 1) 1 39490U 13078A 26165.15420622 .00003423 00000+0 25796-3 0 9999 2 39490 82.4132 264.1533 0011671 252.0509 107.9444 15.02147789677508 COSMOS 2494 (SKRL-756 2) 1 39491U 13078B 26165.15762325 .00002805 00000+0 19610-3 0 9990 2 39491 82.4123 253.5519 0015611 209.1969 150.8387 15.04850516678354